This demonstration page uses our WeatherBlox Daily Observations layout. Learn more.

39.08367, -84.50855

Hourly Observations for June 1, 2020

Temp ( °F °C ) Dew Point ( °F °C ) Humidity (%) Winds ( mph kmh ) Pressure ( in mb ) Visibility ( mi km ) Precip ( " mm )
12:53 am 00:53 Clear 51 10.6 48 8.9 89 89 Calm 30.3 1026 10 16.0934 0 0
1:53 am 01:53 Clear 50 10 47 8.3 89 89 Calm 30.31 1026 10 16.0934 0 0
2:53 am 02:53 Clear 48 8.9 46 7.8 93 93 Calm 30.31 1027 10 16.0934 0 0
3:53 am 03:53 Clear 47 8.3 45 7.2 93 93 Calm 30.3 1026 10 16.0934 0 0
4:53 am 04:53 Clear 47 8.3 45 7.2 93 93 Calm 30.32 1027 10 16.0934 0 0
5:53 am 05:53 Clear 46 7.8 45 7.2 96 96 Calm 30.33 1027 10 16.0934 0 0
6:53 am 06:53 Sunny 46 7.8 45 7.2 96 96 ENE 3 6 30.35 1028 10 16.0934 0 0
7:53 am 07:53 Sunny 51 10.6 48 8.9 89 89 Calm 30.34 1028 10 16.0934 0 0
8:53 am 08:53 Sunny 56 13.3 49 9.4 77 77 Calm 30.35 1028 10 16.0934 0 0
9:53 am 09:53 Sunny 62 16.7 47 8.3 58 58 S 7 11 30.35 1028 10 16.0934 0 0
10:53 am 10:53 Sunny 65 18.3 47 8.3 52 52 SE 5 7 30.34 1028 10 16.0934 0 0
11:53 am 11:53 Sunny 68 20 47 8.3 47 47 VRB 3 6 30.33 1027 10 16.0934 0 0
12:53 pm 12:53 Sunny 71 21.7 48 8.9 44 44 SW 8 13 30.3 1026 10 16.0934 0 0
1:53 pm 13:53 Sunny 72 22.2 44 6.7 37 37 WSW 8 13 30.28 1025 10 16.0934 0 0
2:53 pm 14:53 Sunny 73 22.8 44 6.7 35 35 VRB 3 6 30.25 1025 10 16.0934 0 0
3:53 pm 15:53 Sunny 75 23.9 44 6.7 33 33 S 8 13 30.23 1024 10 16.0934 0 0
4:53 pm 16:53 Sunny 75 23.9 43 6.1 32 32 Calm 30.2 1023 10 16.0934 0 0
5:53 pm 17:53 Sunny 76 24.4 42 5.6 30 30 SW 5 7 30.18 1022 10 16.0934 0 0
6:53 pm 18:53 Sunny 73 22.8 48 8.9 41 41 SSW 7 11 30.17 1022 10 16.0934 0 0
7:53 pm 19:53 Sunny 71 21.7 52 11.1 51 51 SE 3 6 30.16 1021 10 16.0934 0 0
8:53 pm 20:53 Cloudy 67 19.4 54 12.2 63 63 SSE 3 6 30.16 1021 10 16.0934 0 0
9:53 pm 21:53 Mostly Cloudy 65 18.3 55 12.8 70 70 S 5 7 30.15 1021 10 16.0934 0 0
10:53 pm 22:53 Cloudy 66 18.9 55 12.8 68 68 SSW 7 11 30.14 1021 10 16.0934 0 0
11:53 pm 23:53 Cloudy 65 18.3 52 11.1 63 63 S 3 6 30.13 1020 10 16.0934 0 0

Powered by AerisWeather